This is the latest recevied weather packets stored in our database for station/object KF0EZB. If no packets are shown the sender has not sent any weather packets the latest 1 day(s).
| Time | Temp. | Humidity | Pressure | Rain* | Wind** | Luminosity | Snow |
|---|---|---|---|---|---|---|---|
| 1778072732 | 5.56° C | 99% | 1018.9 hPa | 0 mm | - | 13 W/m² | - |
| 1778072128 | 5.56° C | 99% | 1018.7 hPa | 0 mm | - | 12 W/m² | - |
| 1778071523 | 5.56° C | 99% | 1018.9 hPa | 0 mm | - | 10 W/m² | - |
| 1778070011 | 6.11° C | 99% | 1018.2 hPa | 0 mm | - | 15 W/m² | - |
| 1778069708 | 6.11° C | 99% | 1018 hPa | 0 mm | - | 7 W/m² | - |
| 1778068497 | 6.11° C | 99% | 1018.1 hPa | 0 mm | - | 2 W/m² | - |
| 1778067591 | 6.11° C | 99% | 1017.1 hPa | 0 mm | - | 0 W/m² | - |
| 1778066379 | 6.11° C | 99% | 1017.2 hPa | 0 mm | - | 0 W/m² | - |
| 1778065774 | 6.11° C | 99% | 1017.2 hPa | 0 mm | - | 0 W/m² | - |
| 1778065472 | 6.11° C | 99% | 1016.9 hPa | 1.27 mm | - | 0 W/m² | - |
| 1778065168 | 6.11° C | 99% | 1016.6 hPa | 1.27 mm | - | 0 W/m² | - |
| 1778064562 | 6.11° C | 99% | 1016.6 hPa | 0 mm | - | 0 W/m² | - |
| 1778064260 | 6.11° C | 99% | 1016.7 hPa | 0 mm | - | 0 W/m² | - |
| 1778063958 | 6.11° C | 99% | 1016.6 hPa | 0 mm | - | 0 W/m² | - |
| 1778063655 | 6.11° C | 99% | 1016.5 hPa | 0 mm | - | 0 W/m² | - |
| 1778063352 | 6.11° C | 99% | 1016.6 hPa | 0 mm | - | 0 W/m² | - |
| 1778062747 | 6.11° C | 98% | 1016.3 hPa | 0 mm | - | 0 W/m² | - |
| 1778062443 | 6.11° C | 98% | 1016.3 hPa | 0 mm | - | 0 W/m² | - |
| 1778061839 | 6.11° C | 98% | 1016.6 hPa | 0 mm | - | 0 W/m² | - |
| 1778061235 | 6.11° C | 98% | 1016.2 hPa | 0 mm | - | 0 W/m² | - |
| 1778060327 | 6.11° C | 98% | 1016.4 hPa | 1.78 mm | - | 0 W/m² | - |
| 1778059722 | 6.11° C | 98% | 1016.4 hPa | 1.27 mm | - | 0 W/m² | - |
| 1778059420 | 6.11° C | 98% | 1016.5 hPa | 1.27 mm | - | 0 W/m² | - |
| 1778059116 | 6.11° C | 98% | 1016.4 hPa | 1.78 mm | - | 0 W/m² | - |
| 1778058814 | 6.11° C | 98% | 1016.5 hPa | 3.05 mm | - | 0 W/m² | - |
* Rain latest hour (hover to see other rain measurements)
** Current wind speed in m/s (hover to see current wind gust speed)